Regional Weather Roundup
Issued by NWS

Home | Current Version | Previous Version | Text Only | Print | Product List | Glossary Off
Versions: 1 2 3 4 5 6 7 8 9 10 11 12 13 14 15 16 17 18 19 20 21 22 23 24 25 26 27 28 29 30 31 32 33 34 35 36 37 38 39 40 41 42 43 44 45 46 47 48 49 50

000
ASUS43 KMKX 202211
RWRWI

WISCONSIN REGIONAL WEATHER ROUNDUP
NATIONAL WEATHER SERVICE MILWAUKEE/SULLIVAN WI
500 PM CDT WED AUG 20 2014

NOTE: "FAIR" INDICATES FEW OR NO CLOUDS BELOW 12,000 FEET WITH NO
SIGNIFICANT WEATHER AND/OR OBSTRUCTIONS TO VISIBILITY.

WIZ001-002-006>008-014>016-023>028-202300-
NORTHWEST WISCONSIN

CITY           SKY/WX    TMP DP  RH WIND       PRES   REMARKS
SUPERIOR ARPT  CLOUDY    69  61  75 E5        29.91S
ASHLAND        CLOUDY    71  62  73 NE7       29.93R
HAYWARD        CLOUDY    70  61  73 CALM      29.93R
SIREN          CLOUDY    76  61  60 E5        29.90S
RICE LAKE      PTSUNNY   74  61  63 W3        29.92R
LADYSMITH      CLOUDY    73  60  63 CALM      29.93S
EAU CLAIRE     MOSUNNY   78  63  59 NE5       29.88S HX  80
MENOMONIE      MOCLDY    78  62  57 NE6       29.88S
NEW RICHMOND   PTSUNNY   76  64  65 E6        29.88S
OSCEOLA        PTSUNNY   77  65  65 SE3       29.90S
$$

WIZ003>005-009-010-017-018-202300-
NORTH CENTRAL WISCONSIN

CITY           SKY/WX    TMP DP  RH WIND       PRES   REMARKS
WOODRUFF       CLOUDY    69  61  75 CALM      29.94S
RHINELANDER    CLOUDY    67  59  75 CALM      29.94S
EAGLE RIVER    CLOUDY    67  59  75 CALM      29.94R
LAND O LAKES   CLOUDY    66  61  83 W5        29.96R
PHILLIPS       CLOUDY    69  59  71 N3        29.92S
TOMAHAWK       MOSUNNY   71  59  67 NE3       29.93S
MEDFORD        CLOUDY    71  61  72 CALM      29.93R
MERRILL        CLOUDY    71  61  72 CALM      29.92R
$$

WIZ029-030-035-036-043>047-202300-
CENTRAL WISCONSIN

CITY           SKY/WX    TMP DP  RH WIND       PRES   REMARKS
WAUSAU         PTSUNNY   74  60  61 CALM      29.91R
MOSINEE        PTSUNNY   72  63  73 VRB5      29.93R
MARSHFIELD     MOSUNNY   76  62  62 W7        29.91R
STEVENS POINT  MOSUNNY   72  60  65 NW3       29.91S
WAUPACA        MOSUNNY   79  63  57 N6        29.90R HX  80
WAUTOMA        PTSUNNY   80  64  58 W6        29.89R HX  81
WISC RAPIDS    MOSUNNY   78  63  59 N6        29.91R HX  80
CAMP DOUGLAS   PTSUNNY   81  70  69 N3        29.88S HX  84
$$

WIZ011>013-019>022-031-037>040-048>050-202300-
NORTHEAST WISCONSIN

CITY           SKY/WX    TMP DP  RH WIND       PRES   REMARKS
ANTIGO         PTSUNNY   70  62  74 N6        29.93S
STURGEON BAY   MOSUNNY   72  61  68 W7        29.90F
GREEN BAY      MOSUNNY   74  62  66 CALM      29.89F
MANITOWOC      MOSUNNY   70  65  84 SE7       29.90S
APPLETON       MOSUNNY   73  61  64 N7        29.90S
CLINTONVILLE   SUNNY     73  57  56 NW3       29.89F
OSHKOSH        SUNNY     75  65  70 E6        29.89R
$$

WIZ032>034-041-042-053>061-202300-
SOUTHWEST WISCONSIN

CITY           SKY/WX    TMP DP  RH WIND       PRES   REMARKS
LA CROSSE      PTSUNNY   85  66  53 N6        29.84F HX  87
SPARTA         PTSUNNY   80  64  57 N6        29.87F HX  82
VIROQUA        FAIR      80  65  61 CALM      29.88S HX  82
BOSCOBEL       PTSUNNY   84  65  52 SW3       29.86R HX  86
PRAIRIE DU CHI PTSUNNY   82  64  54 S6        29.86R HX  83
PLATTEVILLE    FAIR      81  67  62 S5        29.90S HX  83
$$

WIZ056-057-062-063-064-067-068-202300-
SOUTH CENTRAL WISCONSIN

CITY           SKY/WX    TMP DP  RH WIND       PRES   REMARKS
BARABOO/DELLS  SUNNY     83  60  45 NW5       29.88R HX  83
LONE ROCK      MOSUNNY   89  66  46 NW7       29.86R HX  91
WATERTOWN      MOSUNNY   82  67  58 N5        29.86S HX  85
MADISON        PTSUNNY   83  65  54 W5        29.86S HX  85
MIDDLETON      FAIR      82  65  56 W5        29.88R HX  84
MONROE         PTSUNNY   81  64  57 SW10      29.90R HX  82
JANESVILLE     MOSUNNY   88  63  42 W7        29.86R HX  88
$$

WIZ051-052-058>065-066-070>072-202300-
SOUTHEAST WISCONSIN

CITY           SKY/WX    TMP DP  RH WIND       PRES   REMARKS
MILWAUKEE      MOSUNNY   74  66  76 E12       29.87S
WAUKESHA       PTSUNNY   81  63  54 NW3       29.88F HX  82
MILWAUKEE/TIMM MOSUNNY   79  63  57 SE8       29.88S HX  80
RACINE         SUNNY     76  67  73 E9        29.88S
BURLINGTON     SUNNY     80  64  57 W5        29.87R HX  82
KENOSHA        MOSUNNY   84  67  56 NW7       29.87S HX  86
FOND DU LAC    SUNNY     77  65  66 N9        29.89R
SHEBOYGAN      SUNNY     73  64  73 SE6       29.89S
WEST BEND      PTSUNNY   73  63  68 E6        29.88S
JUNEAU         MOSUNNY   80  42  25 CALM      29.88F
$$

LSZ147-162-202300-
LAKE SUPERIOR

STATION/POSITION TIME  TEMP    WIND        PRES    WAVE
                       AIR SEA DIR/SP/G            HT/PER
                 (UTC) (F)     (DEG/KT/KT) (MB)    (FT/S)
W MID LAKE BUOY  2150   59 59  110/  2/  2 1013.3R   1
DEVILS ISLAND    2200   67      10/  4/  4 1013.3R
PORT WING        2100   67      10/  4/  4 1013.2
SAXON HARBOR     2100   67      50/  6/  7 1013.5R
$$

LMZ867-665-643>646-202300-
LAKE MICHIGAN

STATION/POSITION TIME  TEMP    WIND        PRES    WAVE
                       AIR SEA DIR/SP/G            HT/PER
                 (UTC) (F)     (DEG/KT/KT) (MB)    (FT/S)
N MID LAKE BUOY  2150   63 63  220/  4/  6 1011.9R   1
NORTHPORT PIER   2100   66     120/  4/  4 1012.2S
SISTER BAY       2126   77     300/  6/  6   N/A
KEWAUNEE LAKESHO 2100   67     130/  3/  4 1011.6R
SHEBOYGAN LAKESH 2200   67 67  150/  7/  7 1012.5R
ATWATER BUOY     2100   69     130/ 10/ 12 1012.8F
MILWAUKEE LAKESH 2100   70      90/  6/  8   N/A
S MID LAKE BUOY  2150   69 69   90/  6/  8 1011.7S   0
KENOSHA   LAKESH 2200   75     120/  8/  9 1010.8S
$$

TC  - TEMPERATURE IN CELSIUS
VSB - VISIBILITY IN STATUTE MILES
WCI - WIND CHILL INDEX
HX  - HEAT INDEX



USA.gov is the U.S. government's official web portal to all federal, state and local government web resources and services.